Content
SEND FEEDBACK

Daily
Averages
Monthly
Summary
United States of America

GREENFIELD, MASSACHUSETTS


Home > North America > United States > Massachusetts
Elevation: 190 feet     Latitude: 42 37N     Longitude: 072 33W

WEATHER
 
SELECT A DAY
Number of Records: 214,952;   Date Range: 7/1/96 - 9/30/14
 
SHARE

PRINT THIS DATA

[ ← Previous Day ]
WEATHER ALMANAC - AUGUST 18, 2014
[ Next Day → ]
[ °C ]   °F
Weather ElementAverageHighLow
Temperature59.1 °F75.9 °F (1:52 pm)50 °F (5:52 am)
Dewpoint49.6 °F54 °F (1:52 am)43 °F (3:52 pm)
Humidity76.4 %100 % (12:50 am)32 % (3:52 pm)
Barometer29.85 in29.91 in (5:52 am)29.82 in (3:52 pm)
Wind Speed4.3 mph16.1 mph (2:48 pm)
Wind Gust24.2 mph (2:52 pm)
Weather ElementAverage
Visibility7.4 mi
Wind DirectionESE (121.9 °)

Weather ElementTotal
Precipitation---
Heating Degree Days2.1 (Base 65)
Growing Degree Days13 (Base 50)
Averaged from 32 records on August 18, 2014
WEATHER CONDITIONS BREAKOUT
WIND DIRECTION BREAKOUT
WEATHER BY HOUR - AUGUST 18, 2014
[ °C ]   °F
Local TimeTemperatureDewpointHumidityBarometerVisibilityWind DirectionWind SpeedGust SpeedPrecipitationEventsConditions
1:52 AM53.1 °F51.1 °F93 %29.85 in10.0 miCalmClear
3:02 AM51.1 °F50.0 °F96 %29.84 in10.0 miCalmPartly Cloudy
3:30 AM50.0 °F48.9 °F96 %29.84 in2.0 miCalmScattered Clouds
3:41 AM51.1 °F50.0 °F96 %29.84 in7.0 miCalmMostly Cloudy
3:52 AM51.1 °F51.1 °F100 %29.84 in1.8 miCalmMostly Cloudy
3:54 AM51.1 °F51.1 °F100 %29.84 in1.0 miCalmMostly Cloudy
4:02 AM51.1 °F50.0 °F96 %29.84 in0.5 miCalmFogFog
4:52 AM51.1 °F51.1 °F100 %29.85 in0.5 miCalmFogFog
5:06 AM52.0 °F51.1 °F97 %29.85 in1.2 miCalmOvercast
5:09 AM52.0 °F51.1 °F97 %29.85 in1.8 miCalmOvercast
5:11 AM52.0 °F51.1 °F97 %29.85 in3.0 miCalmMostly Cloudy
5:35 AM50.0 °F50.0 °F100 %29.85 in2.5 miCalmMostly Cloudy
5:50 AM50.0 °F50.0 °F100 %29.86 in9.0 miCalmMostly Cloudy
5:52 AM50.0 °F50.0 °F100 %29.86 in10.0 miCalmMostly Cloudy
6:11 AM50.0 °F50.0 °F100 %29.86 in8.0 miCalmMostly Cloudy
6:52 AM52.0 °F51.1 °F97 %29.86 in10.0 miCalmPartly Cloudy
7:52 AM55.9 °F53.1 °F90 %29.87 in10.0 miCalmClear
8:52 AM64.9 °F54.0 °F68 %29.87 in10.0 miNW (320°)10.4 mph17.3 mphClear
9:52 AM66.9 °F53.1 °F61 %29.87 in10.0 miWNW (300°)15.0 mphPartly Cloudy
10:52 AM69.1 °F51.1 °F53 %29.86 in10.0 miNW (320°)15.0 mphPartly Cloudy
11:52 AM71.1 °F51.1 °F49 %29.85 in10.0 miWNW (300°)11.5 mphScattered Clouds
12:52 PM73.0 °F46.9 °F39 %29.83 in10.0 miNNW (330°)12.7 mphClear
1:52 PM73.9 °F45.0 °F35 %29.83 in10.0 miNNW (340°)9.2 mphClear
2:52 PM75.9 °F44.1 °F32 %29.83 in10.0 miNW (320°)16.1 mph24.2 mphClear
3:52 PM75.0 °F43.0 °F32 %29.82 in10.0 miWNW (300°)9.2 mph18.4 mphClear
4:52 PM73.9 °F43.0 °F33 %29.83 in10.0 miNNW (340°)11.5 mphClear
5:52 PM73.0 °F46.9 °F39 %29.84 in10.0 miNorth (360°)11.5 mphClear
6:52 PM69.1 °F46.9 °F45 %29.86 in10.0 miNorth (350°)8.1 mphClear
7:52 PM64.0 °F48.9 °F58 %29.88 in10.0 miNorth (10°)3.5 mphClear
8:52 PM57.9 °F51.1 °F78 %29.88 in10.0 miNW (310°)4.6 mphClear
9:52 PM55.9 °F50.0 °F80 %29.90 in10.0 miCalmClear
10:52 PM53.1 °F50.0 °F89 %29.91 in10.0 miCalmClear
Hourly data recorded from KORE, located miles away from Greenfield, Massachusetts







STORIES FROM OUR PARTNERS